View from above orbital plane
|
View from above satellite
|
Ground track
|
The orbit data is extracted from the following two-line orbital elements,
1 40074U 14037F 21017.12568137 .00000226 00000-0 34034-4 0 9992
2 40074 98.4429 224.1228 0004787 141.3494 218.8059 14.84432648353453
Epoch (UTC): | 17 January 2021 03:00:58 |
Eccentricity: | 0.0004787 |
inclination: | 98.4429° |
perigee height: | 612 km |
apogee height: | 619 km |
right ascension of ascending node: | 224.1228° |
argument of perigee: | 141.3494° |
revolutions per day: | 14.84432648 |
mean anomaly at epoch: | 218.8059° |
orbit number at epoch: | 35345 |
The dashed part of the orbit path shows where the satellite is in the earth's shadow,
|
|